Location: Milton Keynes
(52.0316°N, 0.7531°W)
Time: 04:03:04
(UTC+01:00)

ATV-4 - Visible Passes

Search period start: 17 May 2021 00:00
Search period end: 27 May 2021 00:00
Orbit: 308 x 318 km, 51.6° (Epoch: 02 November)

Date Brightness Start Highest point End Pass type
(mag) Time Alt. Az. Time Alt. Az. Time Alt. Az.
17 May 5.6 22:31:22 10° W 22:38:52 22° SW 22:52:07 10° S visible
18 May 5.9 23:01:44 10° W 23:08:35 17° SW 23:19:14 10° SSW visible
19 May 6.2 23:34:01 10° WSW 23:38:42 12° SW 23:44:41 10° SW visible
21 May 5.4 21:40:55 10° W 21:48:38 29° SW 22:03:52 10° S visible
22 May 5.7 22:12:29 10° W 22:20:09 23° SW 22:33:54 10° S visible
23 May 6.0 22:45:04 10° W 22:52:07 18° SW 23:03:10 10° SSW visible
24 May 6.3 23:19:42 10° WSW 23:24:27 12° SW 23:30:34 10° SW visible
26 May 5.5 21:30:45 10° W 21:38:36 29° SW 21:53:59 10° S visible
